VTBDVYYY

Guest
Details From VTBD - Bangkok Don Mueang Intl
To VYYY - YANGON INTL
Flight Number -
Tags decoded
Created
Modified
Stats Distance 425 nm / 787 km
Max Altitude 0 ft / 0 m
Waypoints 4
Social Downloads 0
Likes 0
Share VATSIM

Download

Looking for another format? Having issues loading an existing format? Contact us
Advertisement - Login to hide

Notes

Requested: VTBD PSL BGO VYYY

Route

VTBD PSL BGO VYYY

ID Type Via Altitude Latitude Longitude Leg Dist Tot Dist Heading (true) Name
O VTBD APT - 0 ft / 0 m 13.91260˚ 100.60680˚ - 0 nm - Bangkok Don Mueang Intl
PSL VOR - 0 ft / 0 m 16.77037˚ 100.29131˚ 172 nm 172 nm 354° / 354° PHITSANULOK VOR-DME
BGO VOR - 0 ft / 0 m 17.31961˚ 96.51647˚ 219 nm 391 nm 279° / 278° BAGO VOR-DME
O VYYY APT - 0 ft / 0 m 16.91084˚ 96.13568˚ 32 nm 424 nm 222° / 222° YANGON INTL

Altitude Profile

Advertisement - Login to hide

Weather


0- 5 10 15 20 25 30 35+ Temperature / ° C

Clouds and Precipitation
Forecast for 2017-12-18 06:00 UTC. Updated 28 minutes ago

Ground ~20,000 ft ~40,000 ft Winds

VTBD

Details ICAO VTBD (DMK)
Name Bangkok Don Mueang Intl
Region Thailand
Timezone Asia/Bangkok (UTC+7.0)
Stats Elevation 9 ft / 3 m (AMSL)
Location 13.912597° 100.606799°
Runways 2
Magnetic Variation 0.582° W

METAR

VTBD 180330Z 13011KT 050V130 9999 FEW030 23/12 Q1020 NOSIG

Decode

TAF

TAF VTBD 172300Z 1800/1906 07008KT 9999 FEW040

Decode

Departure Runways

ID Width Length Bearing (true) Bearing (mag) Surface Threshold Offset Overrun Length
03L 197 ft / 60 m 12,186 ft / 3,714 m 28.55° 29.13° Asphalt 0 ft / 0 m 492 ft / 150 m
03R 148 ft / 45 m 11,520 ft / 3,511 m 28.50° 29.08° Asphalt 0 ft / 0 m 348 ft / 106 m
21L 148 ft / 45 m 11,520 ft / 3,511 m 208.50° 209.08° Asphalt 1,145 ft / 349 m 180 ft / 55 m
21R 197 ft / 60 m 12,186 ft / 3,714 m 208.55° 209.13° Asphalt 0 ft / 0 m 492 ft / 150 m

VYYY

Details ICAO VYYY (RGN)
Name YANGON INTL
Region Myanmar
Timezone Asia/Rangoon (UTC+6.5)
Stats Elevation 109 ft / 33 m (AMSL)
Location 16.910841° 96.135680°
Runways 1
Magnetic Variation 0.634° W

METAR

VYYY 180330Z 8000 SCT020 28/23 Q1017

Decode

TAF

TAF TAF VYYY 172300Z 1800/1824 09005KT 8000 SCT018 SCT110 BECMG 1800/1802 5000 BR NSC

Decode

Destination Runways

ID Width Length Bearing (true) Bearing (mag) Surface Threshold Offset Overrun Length
03 200 ft / 61 m 11,251 ft / 3,429 m 33.10° 33.73° Asphalt 0 ft / 0 m 194 ft / 59 m
21 200 ft / 61 m 11,251 ft / 3,429 m 213.10° 213.73° Asphalt 276 ft / 84 m 0 ft / 0 m

Approach Navaids

Runway Type Ident Frequency Range Bearing (true) Bearing (mag) Slope Elevation
21 Localiser IYGN 109.90 MHz 18 nm / 33 km 213.02° 213.66° - 65 ft / 20 m (AMSL)
21 Glidescope IYGN 109.90 MHz 10 nm / 19 km 213.10° 213.73° 3.00° 65 ft / 20 m (AMSL)
21 DME IYGN 109.90 MHz 18 nm / 33 km - - - 50 ft / 15 m (AMSL)

Popular Alternatives